STARLINK-32250 (60425 NORAD) Tracking and Keplerian Element Data

This shows tracking and keplerian element data for the satellite.

Feedback or suggestion? Click here.




ElementValue
Catalog60425
NameSTARLINK-32250
Epoch Orbit988
Epoch Day286.82641635
Epoch Year2024
RAAN79.6004
Inclination53.1611
Eccentricity9.62E-05
Argument of Perigee91.6564
Mean Anonmoly268.4547
Mean Motion15.30184303
Decay Rate-2.349E-05
L11 60425U 24144A 24286.82641635 -.00002349 00000+0 -67234-4 0 9994
L22 60425 53.1611 79.6004 0000962 91.6564 268.4547 15.30184303 9889



Live tracking and technical data element details for STARLINK-32250 (NORAD 60425). STARLINK-32250 can be tracked NOW for your location showing map with azimuth and elevation plus other details from your city location.







IsCatalogInMostPopularTable: catalog: 60425, numindb: 9
Update: records affected: 1



GetName: 60425 STARLINK-32250

Hit Count: updated at: Tue, 03 Dec 2024 01:55:22 GMT